This is the latest recevied weather packets stored in our database for station/object N3FAA. If no packets are shown the sender has not sent any weather packets the latest 1 day(s).
| Time | Temp. | Humidity | Pressure | Rain* | Wind** | Luminosity | Snow |
|---|---|---|---|---|---|---|---|
| 1778084931 | 18.33° C | 46% | 1015 hPa | 0 mm | - | 671 W/m² | - |
| 1778084327 | 18.33° C | 46% | 1015.1 hPa | 0 mm | - | 623 W/m² | - |
| 1778083418 | 17.78° C | 47% | 1015.1 hPa | 0 mm | - | 558 W/m² | - |
| 1778083117 | 17.22° C | 48% | 1015.2 hPa | 0 mm | - | 517 W/m² | - |
| 1778082813 | 17.78° C | 47% | 1014.8 hPa | 0 mm | - | 468 W/m² | - |
| 1778080778 | 16.11° C | 53% | 1015 hPa | 0 mm | - | 297 W/m² | - |
| 1778080475 | 16.11° C | 53% | 1015.2 hPa | 0 mm | - | 294 W/m² | - |
| 1778077447 | 12.78° C | 64% | 1015 hPa | 0 mm | - | 125 W/m² | - |
| 1778076237 | 11.67° C | 68% | 1014.8 hPa | 0 mm | - | 60 W/m² | - |
| 1778075631 | 10° C | 72% | 1014.7 hPa | 0 mm | - | 50 W/m² | - |
| 1778075327 | 9.44° C | 74% | 1014.8 hPa | 0 mm | - | 45 W/m² | - |
| 1778074417 | 8.33° C | 78% | 1014.5 hPa | 0 mm | - | 30 W/m² | - |
| 1778072599 | 9.44° C | 78% | 1014.3 hPa | 0 mm | - | 5 W/m² | - |
| 1778072297 | 7.78° C | 82% | 1014.4 hPa | 0 mm | - | 2 W/m² | - |
| 1778071995 | 5.56° C | 81% | 1013.9 hPa | 0 mm | - | 0 W/m² | - |
| 1778070786 | 6.11° C | 78% | 1013.9 hPa | 0 mm | - | 0 W/m² | - |
| 1778070179 | 7.78° C | 80% | 1014 hPa | 0 mm | - | 0 W/m² | - |
| 1778069574 | 6.11° C | 83% | 1014.1 hPa | 0 mm | - | 0 W/m² | - |
| 1778069271 | 5.56° C | 82% | 1014 hPa | 0 mm | - | 0 W/m² | - |
| 1778068062 | 5° C | 83% | 1013.9 hPa | 0 mm | - | 0 W/m² | - |
| 1778067458 | 3.89° C | 83% | 1014 hPa | 0 mm | - | 0 W/m² | - |
| 1778067155 | 3.89° C | 81% | 1013.8 hPa | 0 mm | - | 0 W/m² | - |
| 1778066549 | 4.44° C | 79% | 1013.8 hPa | 0 mm | - | 0 W/m² | - |
| 1778066246 | 6.11° C | 77% | 1013.8 hPa | 0 mm | - | 0 W/m² | - |
| 1778065035 | 10° C | 74% | 1013.6 hPa | 0 mm | - | 0 W/m² | - |
* Rain latest hour (hover to see other rain measurements)
** Current wind speed in m/s (hover to see current wind gust speed)